Time,TemperatureF,DewpointF,PressureIn,WindDirection,WindDirectionDegrees,WindSpeedMPH,WindSpeedGustMPH,Humidity,HourlyPrecipIn,Conditions,Clouds,dailyrainin,SoftwareType,DateUTC
2013-06-27 00:00:00,72.5,59.2,29.80,North,-999,-999.0,-999.0,63,-99.99,,,-99.99,,2013-06-27 04:00:00,
2013-06-27 00:01:00,72.3,59.0,29.80,North,-999,-999.0,-999.0,63,-99.99,,,-99.99,,2013-06-27 04:01:00,
2013-06-27 00:02:00,72.3,59.0,29.80,North,-999,-999.0,-999.0,63,-99.99,,,-99.99,,2013-06-27 04:02:00,
2013-06-27 00:05:00,72.1,58.9,29.80,North,-999,-999.0,-999.0,63,-99.99,,,-99.99,,2013-06-27 04:05:00,
2013-06-27 00:06:00,72.1,58.9,29.80,North,-999,-999.0,-999.0,63,-99.99,,,-99.99,,2013-06-27 04:06:00,
2013-06-27 00:12:00,72.0,59.1,29.80,North,-999,-999.0,-999.0,64,-99.99,,,-99.99,,2013-06-27 04:12:00,
2013-06-27 00:17:00,71.8,59.0,29.80,North,-999,-999.0,-999.0,64,-99.99,,,-99.99,,2013-06-27 04:17:00,
2013-06-27 00:18:00,71.8,59.0,29.80,North,-999,-999.0,-999.0,64,-99.99,,,-99.99,,2013-06-27 04:18:00,
2013-06-27 00:23:00,71.6,59.2,29.80,North,-999,-999.0,-999.0,65,-99.99,,,-99.99,,2013-06-27 04:23:00,
2013-06-27 00:28:00,71.4,59.5,29.80,North,-999,-999.0,-999.0,66,-99.99,,,-99.99,,2013-06-27 04:28:00,
2013-06-27 00:33:00,71.2,59.3,29.80,North,-999,-999.0,-999.0,66,-99.99,,,-99.99,,2013-06-27 04:33:00,
2013-06-27 00:38:00,71.1,59.1,29.80,North,-999,-999.0,-999.0,66,-99.99,,,-99.99,,2013-06-27 04:38:00,
2013-06-27 00:44:00,71.1,59.6,29.80,North,-999,-999.0,-999.0,67,-99.99,,,-99.99,,2013-06-27 04:44:00,
2013-06-27 00:49:00,70.9,59.4,29.80,North,-999,-999.0,-999.0,67,-99.99,,,-99.99,,2013-06-27 04:49:00,
2013-06-27 00:54:00,70.7,59.6,29.80,North,-999,-999.0,-999.0,68,-99.99,,,-99.99,,2013-06-27 04:54:00,
2013-06-27 00:59:00,70.5,59.5,29.80,North,-999,-999.0,-999.0,68,-99.99,,,-99.99,,2013-06-27 04:59:00,
2013-06-27 01:04:00,70.5,59.5,29.80,North,-999,-999.0,-999.0,68,-99.99,,,-99.99,,2013-06-27 05:04:00,
2013-06-27 01:10:00,70.5,59.5,29.80,North,-999,-999.0,-999.0,68,-99.99,,,-99.99,,2013-06-27 05:10:00,
2013-06-27 01:15:00,70.3,59.3,29.80,North,-999,-999.0,-999.0,68,-99.99,,,-99.99,,2013-06-27 05:15:00,
2013-06-27 01:20:00,70.2,59.1,29.80,North,-999,-999.0,-999.0,68,-99.99,,,-99.99,,2013-06-27 05:20:00,
2013-06-27 01:26:00,70.0,59.3,29.77,North,-999,-999.0,-999.0,69,-99.99,,,-99.99,,2013-06-27 05:26:00,
2013-06-27 01:31:00,69.8,59.2,29.77,North,-999,-999.0,-999.0,69,-99.99,,,-99.99,,2013-06-27 05:31:00,
2013-06-27 01:36:00,69.8,59.2,29.77,North,-999,-999.0,-999.0,69,-99.99,,,-99.99,,2013-06-27 05:36:00,
2013-06-27 01:41:00,69.6,59.4,29.77,North,-999,-999.0,-999.0,70,-99.99,,,-99.99,,2013-06-27 05:41:00,
2013-06-27 01:47:00,69.6,59.4,29.77,North,-999,-999.0,-999.0,70,-99.99,,,-99.99,,2013-06-27 05:47:00,
2013-06-27 01:52:00,69.4,59.6,29.77,North,-999,-999.0,-999.0,71,-99.99,,,-99.99,,2013-06-27 05:52:00,
2013-06-27 01:57:00,69.4,59.6,29.77,North,-999,-999.0,-999.0,71,-99.99,,,-99.99,,2013-06-27 05:57:00,
2013-06-27 02:02:00,69.3,59.5,29.77,North,-999,-999.0,-999.0,71,-99.99,,,-99.99,,2013-06-27 06:02:00,
2013-06-27 02:08:00,69.3,59.5,29.77,North,-999,-999.0,-999.0,71,-99.99,,,-99.99,,2013-06-27 06:08:00,
2013-06-27 02:13:00,69.1,59.3,29.77,North,-999,-999.0,-999.0,71,-99.99,,,-99.99,,2013-06-27 06:13:00,
2013-06-27 02:18:00,68.9,59.5,29.77,North,-999,-999.0,-999.0,72,-99.99,,,-99.99,,2013-06-27 06:18:00,
2013-06-27 02:24:00,68.9,59.5,29.77,North,-999,-999.0,-999.0,72,-99.99,,,-99.99,,2013-06-27 06:24:00,
2013-06-27 02:29:00,68.9,59.5,29.77,North,-999,-999.0,-999.0,72,-99.99,,,-99.99,,2013-06-27 06:29:00,
2013-06-27 02:34:00,68.9,59.5,29.77,North,-999,-999.0,-999.0,72,-99.99,,,-99.99,,2013-06-27 06:34:00,
2013-06-27 02:41:00,68.7,59.7,29.77,North,-999,-999.0,-999.0,73,-99.99,,,-99.99,,2013-06-27 06:41:00,
2013-06-27 02:46:00,68.5,59.5,29.77,North,-999,-999.0,-999.0,73,-99.99,,,-99.99,,2013-06-27 06:46:00,
2013-06-27 02:51:00,68.5,59.9,29.77,North,-999,-999.0,-999.0,74,-99.99,,,-99.99,,2013-06-27 06:51:00,
2013-06-27 02:56:00,68.4,59.8,29.77,North,-999,-999.0,-999.0,74,-99.99,,,-99.99,,2013-06-27 06:56:00,
2013-06-27 03:01:00,68.2,59.6,29.77,North,-999,-999.0,-999.0,74,-99.99,,,-99.99,,2013-06-27 07:01:00,
2013-06-27 03:07:00,68.4,59.8,29.77,North,-999,-999.0,-999.0,74,-99.99,,,-99.99,,2013-06-27 07:07:00,
2013-06-27 03:12:00,68.2,59.6,29.77,North,-999,-999.0,-999.0,74,-99.99,,,-99.99,,2013-06-27 07:12:00,
2013-06-27 03:17:00,68.2,59.6,29.77,North,-999,-999.0,-999.0,74,-99.99,,,-99.99,,2013-06-27 07:17:00,
2013-06-27 03:22:00,68.0,59.4,29.77,North,-999,-999.0,-999.0,74,-99.99,,,-99.99,,2013-06-27 07:22:00,
2013-06-27 03:27:00,68.0,59.4,29.77,North,-999,-999.0,-999.0,74,-99.99,,,-99.99,,2013-06-27 07:27:00,
2013-06-27 03:33:00,68.0,59.4,29.77,North,-999,-999.0,-999.0,74,-99.99,,,-99.99,,2013-06-27 07:33:00,
2013-06-27 03:38:00,68.0,59.8,29.77,North,-999,-999.0,-999.0,75,-99.99,,,-99.99,,2013-06-27 07:38:00,
2013-06-27 03:44:00,67.8,59.6,29.77,North,-999,-999.0,-999.0,75,-99.99,,,-99.99,,2013-06-27 07:44:00,
2013-06-27 03:49:00,67.8,59.6,29.77,North,-999,-999.0,-999.0,75,-99.99,,,-99.99,,2013-06-27 07:49:00,
2013-06-27 03:54:00,67.6,59.4,29.77,North,-999,-999.0,-999.0,75,-99.99,,,-99.99,,2013-06-27 07:54:00,
2013-06-27 03:59:00,67.6,59.4,29.77,North,-999,-999.0,-999.0,75,-99.99,,,-99.99,,2013-06-27 07:59:00,
2013-06-27 04:04:00,67.6,59.4,29.77,North,-999,-999.0,-999.0,75,-99.99,,,-99.99,,2013-06-27 08:04:00,
2013-06-27 04:10:00,67.5,59.6,29.77,North,-999,-999.0,-999.0,76,-99.99,,,-99.99,,2013-06-27 08:10:00,
2013-06-27 04:15:00,67.5,59.6,29.77,North,-999,-999.0,-999.0,76,-99.99,,,-99.99,,2013-06-27 08:15:00,
2013-06-27 04:21:00,67.3,59.5,29.77,North,-999,-999.0,-999.0,76,-99.99,,,-99.99,,2013-06-27 08:21:00,
2013-06-27 04:27:00,67.3,59.5,29.77,North,-999,-999.0,-999.0,76,-99.99,,,-99.99,,2013-06-27 08:27:00,
2013-06-27 04:32:00,67.1,59.3,29.77,North,-999,-999.0,-999.0,76,-99.99,,,-99.99,,2013-06-27 08:32:00,
2013-06-27 04:38:00,67.1,59.7,29.77,North,-999,-999.0,-999.0,77,-99.99,,,-99.99,,2013-06-27 08:38:00,
2013-06-27 04:43:00,67.1,59.7,29.77,North,-999,-999.0,-999.0,77,-99.99,,,-99.99,,2013-06-27 08:43:00,
2013-06-27 04:49:00,67.1,59.7,29.77,North,-999,-999.0,-999.0,77,-99.99,,,-99.99,,2013-06-27 08:49:00,
2013-06-27 04:54:00,67.1,59.7,29.77,North,-999,-999.0,-999.0,77,-99.99,,,-99.99,,2013-06-27 08:54:00,
2013-06-27 04:59:00,67.1,59.7,29.77,North,-999,-999.0,-999.0,77,-99.99,,,-99.99,,2013-06-27 08:59:00,
2013-06-27 05:04:00,67.1,59.7,29.77,North,-999,-999.0,-999.0,77,-99.99,,,-99.99,,2013-06-27 09:04:00,
2013-06-27 05:09:00,67.1,59.7,29.77,North,-999,-999.0,-999.0,77,-99.99,,,-99.99,,2013-06-27 09:09:00,
2013-06-27 05:15:00,66.9,59.5,29.77,North,-999,-999.0,-999.0,77,-99.99,,,-99.99,,2013-06-27 09:15:00,
2013-06-27 05:20:00,66.7,59.3,29.77,North,-999,-999.0,-999.0,77,-99.99,,,-99.99,,2013-06-27 09:20:00,
2013-06-27 05:25:00,66.7,59.7,29.77,North,-999,-999.0,-999.0,78,-99.99,,,-99.99,,2013-06-27 09:25:00,
2013-06-27 05:30:00,66.7,59.7,29.77,North,-999,-999.0,-999.0,78,-99.99,,,-99.99,,2013-06-27 09:30:00,
2013-06-27 05:35:00,66.7,59.7,29.77,North,-999,-999.0,-999.0,78,-99.99,,,-99.99,,2013-06-27 09:35:00,
2013-06-27 05:41:00,66.7,59.7,29.74,North,-999,-999.0,-999.0,78,-99.99,,,-99.99,,2013-06-27 09:41:00,
2013-06-27 05:46:00,66.7,60.0,29.74,North,-999,-999.0,-999.0,79,-99.99,,,-99.99,,2013-06-27 09:46:00,
2013-06-27 05:51:00,66.7,60.0,29.74,North,-999,-999.0,-999.0,79,-99.99,,,-99.99,,2013-06-27 09:51:00,
2013-06-27 05:56:00,66.7,60.0,29.77,North,-999,-999.0,-999.0,79,-99.99,,,-99.99,,2013-06-27 09:56:00,
2013-06-27 06:01:00,66.7,60.0,29.77,North,-999,-999.0,-999.0,79,-99.99,,,-99.99,,2013-06-27 10:01:00,
2013-06-27 06:07:00,66.9,60.2,29.77,North,-999,-999.0,-999.0,79,-99.99,,,-99.99,,2013-06-27 10:07:00,
2013-06-27 06:12:00,66.9,60.2,29.77,North,-999,-999.0,-999.0,79,-99.99,,,-99.99,,2013-06-27 10:12:00,
2013-06-27 06:17:00,67.1,60.4,29.77,North,-999,-999.0,-999.0,79,-99.99,,,-99.99,,2013-06-27 10:17:00,
2013-06-27 06:22:00,67.1,60.4,29.77,North,-999,-999.0,-999.0,79,-99.99,,,-99.99,,2013-06-27 10:22:00,
2013-06-27 06:27:00,67.3,60.5,29.77,North,-999,-999.0,-999.0,79,-99.99,,,-99.99,,2013-06-27 10:27:00,
2013-06-27 06:33:00,67.3,60.5,29.77,North,-999,-999.0,-999.0,79,-99.99,,,-99.99,,2013-06-27 10:33:00,
2013-06-27 06:38:00,67.5,60.7,29.77,North,-999,-999.0,-999.0,79,-99.99,,,-99.99,,2013-06-27 10:38:00,
2013-06-27 06:43:00,67.6,60.9,29.77,North,-999,-999.0,-999.0,79,-99.99,,,-99.99,,2013-06-27 10:43:00,
2013-06-27 06:48:00,67.8,61.1,29.77,North,-999,-999.0,-999.0,79,-99.99,,,-99.99,,2013-06-27 10:48:00,
2013-06-27 06:53:00,68.0,61.2,29.77,North,-999,-999.0,-999.0,79,-99.99,,,-99.99,,2013-06-27 10:53:00,
2013-06-27 06:59:00,68.2,61.4,29.77,North,-999,-999.0,-999.0,79,-99.99,,,-99.99,,2013-06-27 10:59:00,
2013-06-27 07:04:00,68.4,61.6,29.77,North,-999,-999.0,-999.0,79,-99.99,,,-99.99,,2013-06-27 11:04:00,
2013-06-27 07:09:00,68.5,61.8,29.77,North,-999,-999.0,-999.0,79,-99.99,,,-99.99,,2013-06-27 11:09:00,
2013-06-27 07:14:00,68.7,61.9,29.77,North,-999,-999.0,-999.0,79,-99.99,,,-99.99,,2013-06-27 11:14:00,
2013-06-27 07:19:00,69.1,62.3,29.77,North,-999,-999.0,-999.0,79,-99.99,,,-99.99,,2013-06-27 11:19:00,
2013-06-27 07:25:00,69.3,62.8,29.77,North,-999,-999.0,-999.0,80,-99.99,,,-99.99,,2013-06-27 11:25:00,
2013-06-27 07:30:00,69.6,62.8,29.77,North,-999,-999.0,-999.0,79,-99.99,,,-99.99,,2013-06-27 11:30:00,
2013-06-27 07:36:00,69.8,63.0,29.77,North,-999,-999.0,-999.0,79,-99.99,,,-99.99,,2013-06-27 11:36:00,
2013-06-27 07:42:00,70.2,63.3,29.77,North,-999,-999.0,-999.0,79,-99.99,,,-99.99,,2013-06-27 11:42:00,
2013-06-27 07:47:00,70.3,63.5,29.77,North,-999,-999.0,-999.0,79,-99.99,,,-99.99,,2013-06-27 11:47:00,
2013-06-27 07:52:00,70.5,63.7,29.77,North,-999,-999.0,-999.0,79,-99.99,,,-99.99,,2013-06-27 11:52:00,
2013-06-27 07:57:00,70.7,63.5,29.74,North,-999,-999.0,-999.0,78,-99.99,,,-99.99,,2013-06-27 11:57:00,
2013-06-27 08:02:00,70.9,63.7,29.74,North,-999,-999.0,-999.0,78,-99.99,,,-99.99,,2013-06-27 12:02:00,
2013-06-27 08:09:00,71.4,63.8,29.74,North,-999,-999.0,-999.0,77,-99.99,,,-99.99,,2013-06-27 12:09:00,
2013-06-27 08:15:00,72.0,64.0,29.74,North,-999,-999.0,-999.0,76,-99.99,,,-99.99,,2013-06-27 12:15:00,
2013-06-27 08:20:00,72.7,64.3,29.74,North,-999,-999.0,-999.0,75,-99.99,,,-99.99,,2013-06-27 12:20:00,
2013-06-27 08:26:00,73.4,64.6,29.74,North,-999,-999.0,-999.0,74,-99.99,,,-99.99,,2013-06-27 12:26:00,
2013-06-27 08:31:00,73.8,64.6,29.74,North,-999,-999.0,-999.0,73,-99.99,,,-99.99,,2013-06-27 12:31:00,
2013-06-27 08:36:00,73.9,64.3,29.74,North,-999,-999.0,-999.0,72,-99.99,,,-99.99,,2013-06-27 12:36:00,
2013-06-27 08:42:00,74.1,64.5,29.74,North,-999,-999.0,-999.0,72,-99.99,,,-99.99,,2013-06-27 12:42:00,
2013-06-27 08:47:00,74.7,64.6,29.74,North,-999,-999.0,-999.0,71,-99.99,,,-99.99,,2013-06-27 12:47:00,
2013-06-27 08:52:00,74.8,64.4,29.74,North,-999,-999.0,-999.0,70,-99.99,,,-99.99,,2013-06-27 12:52:00,
2013-06-27 09:00:00,75.4,64.5,29.74,North,-999,-999.0,-999.0,69,-99.99,,,-99.99,,2013-06-27 13:00:00,
2013-06-27 09:05:00,75.6,64.7,29.74,North,-999,-999.0,-999.0,69,-99.99,,,-99.99,,2013-06-27 13:05:00,
2013-06-27 09:10:00,75.9,64.6,29.74,North,-999,-999.0,-999.0,68,-99.99,,,-99.99,,2013-06-27 13:10:00,
2013-06-27 09:15:00,76.5,65.1,29.74,North,-999,-999.0,-999.0,68,-99.99,,,-99.99,,2013-06-27 13:15:00,
2013-06-27 09:20:00,76.8,65.0,29.74,North,-999,-999.0,-999.0,67,-99.99,,,-99.99,,2013-06-27 13:20:00,
2013-06-27 09:26:00,77.2,65.4,29.74,North,-999,-999.0,-999.0,67,-99.99,,,-99.99,,2013-06-27 13:26:00,
2013-06-27 09:31:00,77.7,65.5,29.74,North,-999,-999.0,-999.0,66,-99.99,,,-99.99,,2013-06-27 13:31:00,
2013-06-27 09:37:00,78.1,65.4,29.74,North,-999,-999.0,-999.0,65,-99.99,,,-99.99,,2013-06-27 13:37:00,
2013-06-27 09:42:00,78.3,65.1,29.74,North,-999,-999.0,-999.0,64,-99.99,,,-99.99,,2013-06-27 13:42:00,
2013-06-27 09:47:00,78.6,65.4,29.74,North,-999,-999.0,-999.0,64,-99.99,,,-99.99,,2013-06-27 13:47:00,
2013-06-27 09:52:00,78.8,65.1,29.74,North,-999,-999.0,-999.0,63,-99.99,,,-99.99,,2013-06-27 13:52:00,
2013-06-27 09:57:00,79.2,65.0,29.74,North,-999,-999.0,-999.0,62,-99.99,,,-99.99,,2013-06-27 13:57:00,
2013-06-27 10:03:00,79.3,65.2,29.74,North,-999,-999.0,-999.0,62,-99.99,,,-99.99,,2013-06-27 14:03:00,
2013-06-27 10:08:00,79.5,65.4,29.74,North,-999,-999.0,-999.0,62,-99.99,,,-99.99,,2013-06-27 14:08:00,
2013-06-27 10:13:00,79.7,65.1,29.74,North,-999,-999.0,-999.0,61,-99.99,,,-99.99,,2013-06-27 14:13:00,
2013-06-27 10:18:00,79.5,64.4,29.74,North,-999,-999.0,-999.0,60,-99.99,,,-99.99,,2013-06-27 14:18:00,
2013-06-27 10:23:00,79.5,64.4,29.74,North,-999,-999.0,-999.0,60,-99.99,,,-99.99,,2013-06-27 14:23:00,
2013-06-27 10:29:00,79.5,64.4,29.71,North,-999,-999.0,-999.0,60,-99.99,,,-99.99,,2013-06-27 14:29:00,
2013-06-27 10:34:00,79.5,64.4,29.71,North,-999,-999.0,-999.0,60,-99.99,,,-99.99,,2013-06-27 14:34:00,
2013-06-27 10:40:00,79.3,63.3,29.71,North,-999,-999.0,-999.0,58,-99.99,,,-99.99,,2013-06-27 14:40:00,
2013-06-27 10:45:00,79.3,63.8,29.71,North,-999,-999.0,-999.0,59,-99.99,,,-99.99,,2013-06-27 14:45:00,
2013-06-27 10:50:00,79.5,64.9,29.71,North,-999,-999.0,-999.0,61,-99.99,,,-99.99,,2013-06-27 14:50:00,
2013-06-27 10:55:00,79.5,64.4,29.71,North,-999,-999.0,-999.0,60,-99.99,,,-99.99,,2013-06-27 14:55:00,
2013-06-27 11:00:00,79.7,64.6,29.71,North,-999,-999.0,-999.0,60,-99.99,,,-99.99,,2013-06-27 15:00:00,
2013-06-27 11:06:00,79.9,65.2,29.71,North,-999,-999.0,-999.0,61,-99.99,,,-99.99,,2013-06-27 15:06:00,
2013-06-27 11:11:00,80.1,64.9,29.71,North,-999,-999.0,-999.0,60,-99.99,,,-99.99,,2013-06-27 15:11:00,
2013-06-27 11:16:00,80.1,64.9,29.71,North,-999,-999.0,-999.0,60,-99.99,,,-99.99,,2013-06-27 15:16:00,
2013-06-27 11:21:00,80.1,64.9,29.71,North,-999,-999.0,-999.0,60,-99.99,,,-99.99,,2013-06-27 15:21:00,
2013-06-27 11:26:00,80.1,64.9,29.71,North,-999,-999.0,-999.0,60,-99.99,,,-99.99,,2013-06-27 15:26:00,
2013-06-27 11:32:00,80.1,64.9,29.71,North,-999,-999.0,-999.0,60,-99.99,,,-99.99,,2013-06-27 15:32:00,
2013-06-27 11:37:00,80.2,65.1,29.71,North,-999,-999.0,-999.0,60,-99.99,,,-99.99,,2013-06-27 15:37:00,
2013-06-27 11:42:00,80.4,65.3,29.71,North,-999,-999.0,-999.0,60,-99.99,,,-99.99,,2013-06-27 15:42:00,
2013-06-27 11:47:00,80.4,65.7,29.71,North,-999,-999.0,-999.0,61,-99.99,,,-99.99,,2013-06-27 15:47:00,
2013-06-27 11:53:00,80.4,65.3,29.71,North,-999,-999.0,-999.0,60,-99.99,,,-99.99,,2013-06-27 15:53:00,
2013-06-27 11:58:00,80.6,65.4,29.71,North,-999,-999.0,-999.0,60,-99.99,,,-99.99,,2013-06-27 15:58:00,
2013-06-27 12:03:00,80.4,65.3,29.71,North,-999,-999.0,-999.0,60,-99.99,,,-99.99,,2013-06-27 16:03:00,
2013-06-27 12:09:00,80.4,65.3,29.71,North,-999,-999.0,-999.0,60,-99.99,,,-99.99,,2013-06-27 16:09:00,
2013-06-27 12:14:00,80.4,65.3,29.71,North,-999,-999.0,-999.0,60,-99.99,,,-99.99,,2013-06-27 16:14:00,
2013-06-27 12:19:00,80.2,65.1,29.71,North,-999,-999.0,-999.0,60,-99.99,,,-99.99,,2013-06-27 16:19:00,
2013-06-27 12:24:00,80.2,65.6,29.71,North,-999,-999.0,-999.0,61,-99.99,,,-99.99,,2013-06-27 16:24:00,
2013-06-27 12:29:00,80.2,65.6,29.71,North,-999,-999.0,-999.0,61,-99.99,,,-99.99,,2013-06-27 16:29:00,
2013-06-27 12:35:00,80.2,65.6,29.71,North,-999,-999.0,-999.0,61,-99.99,,,-99.99,,2013-06-27 16:35:00,
2013-06-27 12:40:00,80.2,65.1,29.71,North,-999,-999.0,-999.0,60,-99.99,,,-99.99,,2013-06-27 16:40:00,
2013-06-27 12:45:00,80.1,64.9,29.71,North,-999,-999.0,-999.0,60,-99.99,,,-99.99,,2013-06-27 16:45:00,
2013-06-27 12:50:00,80.1,64.9,29.71,North,-999,-999.0,-999.0,60,-99.99,,,-99.99,,2013-06-27 16:50:00,
2013-06-27 12:55:00,80.1,64.9,29.71,North,-999,-999.0,-999.0,60,-99.99,,,-99.99,,2013-06-27 16:55:00,
2013-06-27 13:01:00,80.1,65.4,29.71,North,-999,-999.0,-999.0,61,-99.99,,,-99.99,,2013-06-27 17:01:00,
2013-06-27 13:06:00,80.1,64.9,29.71,North,-999,-999.0,-999.0,60,-99.99,,,-99.99,,2013-06-27 17:06:00,
2013-06-27 13:11:00,80.1,64.9,29.71,North,-999,-999.0,-999.0,60,-99.99,,,-99.99,,2013-06-27 17:11:00,
2013-06-27 13:16:00,80.1,64.9,29.71,North,-999,-999.0,-999.0,60,-99.99,,,-99.99,,2013-06-27 17:16:00,
2013-06-27 13:22:00,80.1,65.4,29.71,North,-999,-999.0,-999.0,61,-99.99,,,-99.99,,2013-06-27 17:22:00,
2013-06-27 13:29:00,80.1,65.9,29.71,North,-999,-999.0,-999.0,62,-99.99,,,-99.99,,2013-06-27 17:29:00,
2013-06-27 13:34:00,80.1,65.9,29.71,North,-999,-999.0,-999.0,62,-99.99,,,-99.99,,2013-06-27 17:34:00,
2013-06-27 13:40:00,80.1,66.3,29.71,North,-999,-999.0,-999.0,63,-99.99,,,-99.99,,2013-06-27 17:40:00,
2013-06-27 13:46:00,79.9,66.2,29.71,North,-999,-999.0,-999.0,63,-99.99,,,-99.99,,2013-06-27 17:46:00,
2013-06-27 13:51:00,79.9,66.6,29.71,North,-999,-999.0,-999.0,64,-99.99,,,-99.99,,2013-06-27 17:51:00,
2013-06-27 13:57:00,79.9,66.6,29.71,North,-999,-999.0,-999.0,64,-99.99,,,-99.99,,2013-06-27 17:57:00,
2013-06-27 14:02:00,79.9,66.6,29.71,North,-999,-999.0,-999.0,64,-99.99,,,-99.99,,2013-06-27 18:02:00,
2013-06-27 14:08:00,79.9,67.1,29.71,North,-999,-999.0,-999.0,65,-99.99,,,-99.99,,2013-06-27 18:08:00,
2013-06-27 14:13:00,79.9,67.1,29.71,North,-999,-999.0,-999.0,65,-99.99,,,-99.99,,2013-06-27 18:13:00,
2013-06-27 14:19:00,79.9,67.1,29.71,North,-999,-999.0,-999.0,65,-99.99,,,-99.99,,2013-06-27 18:19:00,
2013-06-27 14:24:00,79.7,66.9,29.71,North,-999,-999.0,-999.0,65,-99.99,,,-99.99,,2013-06-27 18:24:00,
2013-06-27 14:29:00,79.7,66.9,29.71,North,-999,-999.0,-999.0,65,-99.99,,,-99.99,,2013-06-27 18:29:00,
2013-06-27 14:34:00,79.5,66.7,29.71,North,-999,-999.0,-999.0,65,-99.99,,,-99.99,,2013-06-27 18:34:00,
2013-06-27 14:39:00,79.5,66.7,29.68,North,-999,-999.0,-999.0,65,-99.99,,,-99.99,,2013-06-27 18:39:00,
2013-06-27 14:45:00,79.5,67.2,29.68,North,-999,-999.0,-999.0,66,-99.99,,,-99.99,,2013-06-27 18:45:00,
2013-06-27 14:51:00,79.3,67.0,29.68,North,-999,-999.0,-999.0,66,-99.99,,,-99.99,,2013-06-27 18:51:00,
2013-06-27 14:56:00,79.3,67.0,29.68,North,-999,-999.0,-999.0,66,-99.99,,,-99.99,,2013-06-27 18:56:00,
2013-06-27 15:01:00,79.2,66.8,29.68,North,-999,-999.0,-999.0,66,-99.99,,,-99.99,,2013-06-27 19:01:00,
2013-06-27 15:06:00,79.2,66.8,29.68,North,-999,-999.0,-999.0,66,-99.99,,,-99.99,,2013-06-27 19:06:00,
2013-06-27 15:11:00,79.2,66.8,29.68,North,-999,-999.0,-999.0,66,-99.99,,,-99.99,,2013-06-27 19:11:00,
2013-06-27 15:17:00,79.2,66.8,29.68,North,-999,-999.0,-999.0,66,-99.99,,,-99.99,,2013-06-27 19:17:00,
2013-06-27 15:22:00,79.2,66.4,29.68,North,-999,-999.0,-999.0,65,-99.99,,,-99.99,,2013-06-27 19:22:00,
2013-06-27 15:28:00,79.2,66.4,29.68,North,-999,-999.0,-999.0,65,-99.99,,,-99.99,,2013-06-27 19:28:00,
2013-06-27 15:33:00,79.2,66.4,29.68,North,-999,-999.0,-999.0,65,-99.99,,,-99.99,,2013-06-27 19:33:00,
2013-06-27 15:39:00,79.0,66.2,29.68,North,-999,-999.0,-999.0,65,-99.99,,,-99.99,,2013-06-27 19:39:00,
2013-06-27 15:44:00,79.0,66.2,29.68,North,-999,-999.0,-999.0,65,-99.99,,,-99.99,,2013-06-27 19:44:00,
2013-06-27 15:49:00,79.2,66.4,29.68,North,-999,-999.0,-999.0,65,-99.99,,,-99.99,,2013-06-27 19:49:00,
2013-06-27 15:54:00,79.0,66.2,29.68,North,-999,-999.0,-999.0,65,-99.99,,,-99.99,,2013-06-27 19:54:00,
2013-06-27 15:59:00,79.0,66.2,29.68,North,-999,-999.0,-999.0,65,-99.99,,,-99.99,,2013-06-27 19:59:00,
2013-06-27 16:05:00,79.0,66.2,29.68,North,-999,-999.0,-999.0,65,-99.99,,,-99.99,,2013-06-27 20:05:00,
2013-06-27 16:10:00,79.0,66.2,29.68,North,-999,-999.0,-999.0,65,-99.99,,,-99.99,,2013-06-27 20:10:00,
2013-06-27 16:16:00,79.0,66.2,29.68,North,-999,-999.0,-999.0,65,-99.99,,,-99.99,,2013-06-27 20:16:00,
2013-06-27 16:22:00,79.0,66.2,29.68,North,-999,-999.0,-999.0,65,-99.99,,,-99.99,,2013-06-27 20:22:00,
2013-06-27 16:27:00,79.0,66.2,29.68,North,-999,-999.0,-999.0,65,-99.99,,,-99.99,,2013-06-27 20:27:00,
2013-06-27 16:32:00,79.0,66.2,29.68,North,-999,-999.0,-999.0,65,-99.99,,,-99.99,,2013-06-27 20:32:00,
2013-06-27 16:37:00,79.0,66.2,29.68,North,-999,-999.0,-999.0,65,-99.99,,,-99.99,,2013-06-27 20:37:00,
2013-06-27 16:42:00,78.8,66.0,29.68,North,-999,-999.0,-999.0,65,-99.99,,,-99.99,,2013-06-27 20:42:00,
2013-06-27 16:48:00,78.8,66.0,29.68,North,-999,-999.0,-999.0,65,-99.99,,,-99.99,,2013-06-27 20:48:00,
2013-06-27 16:54:00,78.6,65.9,29.68,North,-999,-999.0,-999.0,65,-99.99,,,-99.99,,2013-06-27 20:54:00,
2013-06-27 16:59:00,78.6,65.9,29.65,North,-999,-999.0,-999.0,65,-99.99,,,-99.99,,2013-06-27 20:59:00,
2013-06-27 17:04:00,78.4,65.7,29.65,North,-999,-999.0,-999.0,65,-99.99,,,-99.99,,2013-06-27 21:04:00,
2013-06-27 17:10:00,78.4,65.7,29.65,North,-999,-999.0,-999.0,65,-99.99,,,-99.99,,2013-06-27 21:10:00,
2013-06-27 17:15:00,78.4,65.7,29.65,North,-999,-999.0,-999.0,65,-99.99,,,-99.99,,2013-06-27 21:15:00,
2013-06-27 17:20:00,78.3,65.5,29.65,North,-999,-999.0,-999.0,65,-99.99,,,-99.99,,2013-06-27 21:20:00,
2013-06-27 17:25:00,78.3,65.5,29.65,North,-999,-999.0,-999.0,65,-99.99,,,-99.99,,2013-06-27 21:25:00,
2013-06-27 17:30:00,78.1,65.4,29.65,North,-999,-999.0,-999.0,65,-99.99,,,-99.99,,2013-06-27 21:30:00,
2013-06-27 17:36:00,78.1,65.4,29.65,North,-999,-999.0,-999.0,65,-99.99,,,-99.99,,2013-06-27 21:36:00,
2013-06-27 17:41:00,78.1,65.4,29.65,North,-999,-999.0,-999.0,65,-99.99,,,-99.99,,2013-06-27 21:41:00,
2013-06-27 17:46:00,77.9,65.2,29.65,North,-999,-999.0,-999.0,65,-99.99,,,-99.99,,2013-06-27 21:46:00,
2013-06-27 17:51:00,77.9,65.2,29.65,North,-999,-999.0,-999.0,65,-99.99,,,-99.99,,2013-06-27 21:51:00,
2013-06-27 17:57:00,77.9,65.2,29.65,North,-999,-999.0,-999.0,65,-99.99,,,-99.99,,2013-06-27 21:57:00,
2013-06-27 18:03:00,77.9,65.2,29.65,North,-999,-999.0,-999.0,65,-99.99,,,-99.99,,2013-06-27 22:03:00,
2013-06-27 18:08:00,77.7,65.0,29.65,North,-999,-999.0,-999.0,65,-99.99,,,-99.99,,2013-06-27 22:08:00,
2013-06-27 18:13:00,77.7,65.5,29.65,North,-999,-999.0,-999.0,66,-99.99,,,-99.99,,2013-06-27 22:13:00,
2013-06-27 18:19:00,77.5,65.3,29.65,North,-999,-999.0,-999.0,66,-99.99,,,-99.99,,2013-06-27 22:19:00,
2013-06-27 18:24:00,77.5,65.3,29.65,North,-999,-999.0,-999.0,66,-99.99,,,-99.99,,2013-06-27 22:24:00,
2013-06-27 18:29:00,77.4,65.1,29.65,North,-999,-999.0,-999.0,66,-99.99,,,-99.99,,2013-06-27 22:29:00,
2013-06-27 18:35:00,77.4,65.5,29.65,North,-999,-999.0,-999.0,67,-99.99,,,-99.99,,2013-06-27 22:35:00,
2013-06-27 18:41:00,77.4,65.5,29.65,North,-999,-999.0,-999.0,67,-99.99,,,-99.99,,2013-06-27 22:41:00,
2013-06-27 18:46:00,77.2,65.4,29.65,North,-999,-999.0,-999.0,67,-99.99,,,-99.99,,2013-06-27 22:46:00,
2013-06-27 18:51:00,77.0,65.2,29.65,North,-999,-999.0,-999.0,67,-99.99,,,-99.99,,2013-06-27 22:51:00,
2013-06-27 18:56:00,76.6,65.3,29.65,North,-999,-999.0,-999.0,68,-99.99,,,-99.99,,2013-06-27 22:56:00,
2013-06-27 19:01:00,76.5,65.1,29.65,North,-999,-999.0,-999.0,68,-99.99,,,-99.99,,2013-06-27 23:01:00,
2013-06-27 19:08:00,76.5,65.1,29.65,North,-999,-999.0,-999.0,68,-99.99,,,-99.99,,2013-06-27 23:08:00,
2013-06-27 19:14:00,76.3,64.9,29.65,North,-999,-999.0,-999.0,68,-99.99,,,-99.99,,2013-06-27 23:14:00,
2013-06-27 19:20:00,76.1,64.8,29.65,North,-999,-999.0,-999.0,68,-99.99,,,-99.99,,2013-06-27 23:20:00,
2013-06-27 19:26:00,75.9,62.9,29.65,North,-999,-999.0,-999.0,64,-99.99,,,-99.99,,2013-06-27 23:26:00,
2013-06-27 19:31:00,75.6,60.2,29.65,North,-999,-999.0,-999.0,59,-99.99,,,-99.99,,2013-06-27 23:31:00,
2013-06-27 19:38:00,75.4,59.1,29.65,North,-999,-999.0,-999.0,57,-99.99,,,-99.99,,2013-06-27 23:38:00,
2013-06-27 19:44:00,75.4,59.6,29.65,North,-999,-999.0,-999.0,58,-99.99,,,-99.99,,2013-06-27 23:44:00,
2013-06-27 19:49:00,75.0,59.7,29.65,North,-999,-999.0,-999.0,59,-99.99,,,-99.99,,2013-06-27 23:49:00,
2013-06-27 19:54:00,75.0,59.2,29.65,North,-999,-999.0,-999.0,58,-99.99,,,-99.99,,2013-06-27 23:54:00,
2013-06-27 20:00:00,74.8,59.1,29.65,North,-999,-999.0,-999.0,58,-99.99,,,-99.99,,2013-06-28 00:00:00,
2013-06-27 20:06:00,74.7,58.9,29.65,North,-999,-999.0,-999.0,58,-99.99,,,-99.99,,2013-06-28 00:06:00,
2013-06-27 20:11:00,74.5,58.7,29.65,North,-999,-999.0,-999.0,58,-99.99,,,-99.99,,2013-06-28 00:11:00,
2013-06-27 20:16:00,74.5,58.3,29.65,North,-999,-999.0,-999.0,57,-99.99,,,-99.99,,2013-06-28 00:16:00,
2013-06-27 20:21:00,74.3,58.6,29.65,North,-999,-999.0,-999.0,58,-99.99,,,-99.99,,2013-06-28 00:21:00,
2013-06-27 20:27:00,74.1,58.4,29.65,North,-999,-999.0,-999.0,58,-99.99,,,-99.99,,2013-06-28 00:27:00,
2013-06-27 20:32:00,74.1,58.4,29.65,North,-999,-999.0,-999.0,58,-99.99,,,-99.99,,2013-06-28 00:32:00,
2013-06-27 20:37:00,73.9,58.2,29.65,North,-999,-999.0,-999.0,58,-99.99,,,-99.99,,2013-06-28 00:37:00,
2013-06-27 20:42:00,73.9,58.2,29.65,North,-999,-999.0,-999.0,58,-99.99,,,-99.99,,2013-06-28 00:42:00,
2013-06-27 20:48:00,73.9,58.7,29.65,North,-999,-999.0,-999.0,59,-99.99,,,-99.99,,2013-06-28 00:48:00,
2013-06-27 20:53:00,73.9,58.7,29.65,North,-999,-999.0,-999.0,59,-99.99,,,-99.99,,2013-06-28 00:53:00,
2013-06-27 20:58:00,73.9,58.7,29.65,North,-999,-999.0,-999.0,59,-99.99,,,-99.99,,2013-06-28 00:58:00,
2013-06-27 21:04:00,73.8,59.5,29.65,North,-999,-999.0,-999.0,61,-99.99,,,-99.99,,2013-06-28 01:04:00,
2013-06-27 21:09:00,73.8,59.9,29.65,North,-999,-999.0,-999.0,62,-99.99,,,-99.99,,2013-06-28 01:09:00,
2013-06-27 21:15:00,73.6,60.2,29.65,North,-999,-999.0,-999.0,63,-99.99,,,-99.99,,2013-06-28 01:15:00,
2013-06-27 21:20:00,73.6,60.2,29.65,North,-999,-999.0,-999.0,63,-99.99,,,-99.99,,2013-06-28 01:20:00,
2013-06-27 21:25:00,73.4,60.0,29.65,North,-999,-999.0,-999.0,63,-99.99,,,-99.99,,2013-06-28 01:25:00,
2013-06-27 21:30:00,73.4,60.0,29.65,North,-999,-999.0,-999.0,63,-99.99,,,-99.99,,2013-06-28 01:30:00,
2013-06-27 21:35:00,73.2,60.3,29.65,North,-999,-999.0,-999.0,64,-99.99,,,-99.99,,2013-06-28 01:35:00,
2013-06-27 21:41:00,73.2,60.8,29.65,North,-999,-999.0,-999.0,65,-99.99,,,-99.99,,2013-06-28 01:41:00,
2013-06-27 21:46:00,73.2,60.8,29.65,North,-999,-999.0,-999.0,65,-99.99,,,-99.99,,2013-06-28 01:46:00,
2013-06-27 21:51:00,73.0,60.6,29.65,North,-999,-999.0,-999.0,65,-99.99,,,-99.99,,2013-06-28 01:51:00,
2013-06-27 21:57:00,73.0,60.6,29.65,North,-999,-999.0,-999.0,65,-99.99,,,-99.99,,2013-06-28 01:57:00,
2013-06-27 22:02:00,72.9,61.3,29.65,North,-999,-999.0,-999.0,67,-99.99,,,-99.99,,2013-06-28 02:02:00,
2013-06-27 22:07:00,72.7,61.5,29.65,North,-999,-999.0,-999.0,68,-99.99,,,-99.99,,2013-06-28 02:07:00,
2013-06-27 22:13:00,72.5,61.3,29.62,North,-999,-999.0,-999.0,68,-99.99,,,-99.99,,2013-06-28 02:13:00,
2013-06-27 22:18:00,72.3,61.6,29.62,North,-999,-999.0,-999.0,69,-99.99,,,-99.99,,2013-06-28 02:18:00,
2013-06-27 22:24:00,72.1,61.8,29.62,North,-999,-999.0,-999.0,70,-99.99,,,-99.99,,2013-06-28 02:24:00,
2013-06-27 22:29:00,72.1,61.8,29.62,North,-999,-999.0,-999.0,70,-99.99,,,-99.99,,2013-06-28 02:29:00,
2013-06-27 22:34:00,71.6,61.7,29.62,North,-999,-999.0,-999.0,71,-99.99,,,-99.99,,2013-06-28 02:34:00,
2013-06-27 22:42:00,71.1,62.0,29.65,North,-999,-999.0,-999.0,73,-99.99,,,-99.99,,2013-06-28 02:42:00,
2013-06-27 22:47:00,70.9,61.8,29.65,North,-999,-999.0,-999.0,73,-99.99,,,-99.99,,2013-06-28 02:47:00,
2013-06-27 22:52:00,70.7,62.0,29.65,North,-999,-999.0,-999.0,74,-99.99,,,-99.99,,2013-06-28 02:52:00,
2013-06-27 22:57:00,70.5,62.2,29.65,North,-999,-999.0,-999.0,75,-99.99,,,-99.99,,2013-06-28 02:57:00,
2013-06-27 23:03:00,70.3,62.4,29.65,North,-999,-999.0,-999.0,76,-99.99,,,-99.99,,2013-06-28 03:03:00,
2013-06-27 23:08:00,70.2,62.2,29.65,North,-999,-999.0,-999.0,76,-99.99,,,-99.99,,2013-06-28 03:08:00,
2013-06-27 23:14:00,70.2,62.2,29.65,North,-999,-999.0,-999.0,76,-99.99,,,-99.99,,2013-06-28 03:14:00,
2013-06-27 23:19:00,70.0,62.4,29.65,North,-999,-999.0,-999.0,77,-99.99,,,-99.99,,2013-06-28 03:19:00,
2013-06-27 23:25:00,70.0,62.4,29.62,North,-999,-999.0,-999.0,77,-99.99,,,-99.99,,2013-06-28 03:25:00,
2013-06-27 23:30:00,70.0,62.8,29.62,North,-999,-999.0,-999.0,78,-99.99,,,-99.99,,2013-06-28 03:30:00,
2013-06-27 23:35:00,70.0,62.8,29.62,North,-999,-999.0,-999.0,78,-99.99,,,-99.99,,2013-06-28 03:35:00,
2013-06-27 23:40:00,69.8,62.6,29.62,North,-999,-999.0,-999.0,78,-99.99,,,-99.99,,2013-06-28 03:40:00,
2013-06-27 23:45:00,69.8,62.6,29.62,North,-999,-999.0,-999.0,78,-99.99,,,-99.99,,2013-06-28 03:45:00,
2013-06-27 23:51:00,69.6,62.8,29.62,North,-999,-999.0,-999.0,79,-99.99,,,-99.99,,2013-06-28 03:51:00,
2013-06-27 23:57:00,69.6,62.8,29.62,North,-999,-999.0,-999.0,79,-99.99,,,-99.99,,2013-06-28 03:57:00,